Tracking 21472 objects as of 22-Sep-2020
HD Live streaming from Space Station
objects crossing your sky now

STARLINK-1504

Track STARLINK-1504 now!
10-day predictions
STARLINK-1504 is classified as:


NORAD ID: 45746
Int'l Code: 2020-038S
Perigee: 555.8 km
Apogee: 558.0 km
Inclination: 53.0 °
Period: 95.6 minutes
Semi major axis: 6927 km
RCS: Unknown
Launch date: June 13, 2020
Source: United States (US)
Launch site: AIR FORCE EASTERN TEST RANGE (AFETR)
aabbcc
Your satellite tracking list
Your tracking list is empty




NASA's NSSDC Master Catalog

Two Line Element Set (TLE):
1 45746U 20038S   20265.58334491 +.00010628 +00000-0 +74755-3 0  9999
2 45746 052.9995 192.9972 0001597 073.4243 018.9901 15.05576889001813
Source of the keplerian elements: AFSPC